Location: Aulnoy
(48.8410°N, 3.0967°E)
Time: 21:45:17
(UTC+00:00)

Cosmos 2208 Rocket - Pass Details

Date: 09 February 2023
Orbit: 753 x 805 km, 74.0° (Epoch: 29 March)

Event Time Altitude Azimuth Distance (km) Brightness Sun altitude
Rises 18:37:31 0° 338° (NNW) 3,219 7.5 -16.8°
Reaches altitude 10° 18:39:54 10° 340° (NNW) 2,292 6.7 -17.1°
Maximum altitude 18:45:05 72° 65° (ENE) 802 3.9 -18.0°
Enters shadow 18:50:10 11° 150° (SSE) 2,249 6.1 -18.8°
